Location: Kielce
(50.8833°N, 20.6167°E)
Time: 21:00:12
(UTC+02:00)

SR - Pass Details

Date: 24 April 2021
Orbit: 573 x 882 km, 66.7° (Epoch: 09 May)

Event Time Altitude Azimuth Distance (km) Brightness Sun altitude
Rises 12:08:41 0° 309° (NW) 3,486 ? 51.7°
Reaches altitude 10° 12:12:04 10° 328° (NNW) 2,550 ? 51.8°
Maximum altitude 12:16:03 18° 10° (N) 2,014 ? 51.9°
Drops below altitude 10° 12:19:59 10° 53° (NE) 2,503 ? 52.0°
Sets 12:23:16 0° 72° (ENE) 3,398 ? 52.0°
